[[{"header":{"parameterUnit":"m.s-1","parameterCategory":1,"la1":30.2991,"la2":30.254,"lo1":-89.0895,"lo2":-89.0444,"dy":0.0017,"dx":0.0017,"nx":28,"ny":28,"refTime":"2025-11-14T09:00:00:Z","depth":0,"parameterNumber":2,"parameterNumberName":"U-component_of_WINDS"},"data":[0,0,0,0,0,0,0,0,0,0,0,0,0,0,0,0,0,0,0,0,0,0,0,0,0,0,0,0,0,0,0,0,0,0,0,0,0,0,0,0,0,0,0,0,0,0,0,0,0,0,0,0,0,0,0,0,0,0,-0.5179,-0.5178,0,-0.5104,-0.5103,-0.5102,-0.5067,-0.5067,-0.5067,-0.5067,-0.4988,-0.4986,-0.4984,0,0,0,0,0,0,0,0,0,0,0,0,0,-0.529,-0.5289,-0.5179,-0.5178,-0.5177,-0.5104,-0.5103,-0.5102,-0.5067,-0.5067,-0.5067,-0.5067,-0.4989,-0.4986,-0.4984,0,0,0,0,0,0,0,0,0,0,0,0,0,-0.5231,-0.5288,-0.5179,-0.5151,-0.5147,-0.5104,-0.5103,-0.5102,-0.5067,-0.5067,-0.5067,-0.5067,-0.499,-0.4987,-0.4984,-0.4963,0,0,-0.4974,-0.4972,0,0,0,0,0,0,0,0,-0.5235,-0.5227,-0.5156,-0.5153,-0.5149,-0.5095,-0.5114,-0.5055,-0.5067,-0.5097,-0.5067,-0.5067,-0.5024,-0.5018,-0.5003,-0.4959,-0.4956,-0.4974,-0.4972,-0.497,-0.4969,0,0,0,0,0,0,0,-0.5239,-0.523,-0.5149,-0.5155,-0.5151,-0.5141,-0.5133,-0.5102,-0.5061,-0.5095,-0.5092,-0.5084,-0.5022,-0.5007,-0.5001,-0.4954,-0.4974,-0.4971,-0.4969,-0.4968,-0.489,-0.489,0,0,0,0,0,0,-0.5248,-0.5234,-0.5152,-0.5147,-0.5193,-0.5139,-0.513,-0.5112,-0.5061,-0.5054,-0.5084,-0.5082,-0.5012,-0.5005,-0.4998,-0.4971,-0.497,-0.4967,-0.4965,-0.489,-0.489,-0.489,0,0,0,0,0,0,-0.525,-0.5241,-0.5155,-0.519,-0.5178,-0.5137,-0.5118,-0.5111,-0.5095,-0.5053,-0.5045,-0.5076,-0.5012,-0.5003,-0.4972,-0.4968,-0.4966,-0.4963,-0.489,-0.489,-0.489,-0.4916,0,0,0,0,0,0,-0.5254,-0.5242,-0.5234,-0.519,-0.5176,-0.513,-0.5117,-0.5109,-0.509,-0.5088,-0.5044,-0.5036,-0.5011,-0.4977,-0.4969,-0.4963,-0.496,-0.4891,-0.489,-0.489,-0.4915,-0.4917,-0.4918,0,0,0,0,0,-0.5258,-0.5243,-0.5233,-0.5224,-0.5165,-0.513,-0.5122,-0.5094,-0.509,-0.5081,-0.5054,-0.5038,-0.497,-0.4974,-0.4965,-0.4958,-0.4891,-0.489,-0.489,-0.4915,-0.4917,-0.4918,0,0,0,0,0,0,-0.5286,-0.5237,-0.5225,-0.5196,-0.5168,-0.5124,-0.5112,-0.5096,-0.5068,-0.5066,-0.5032,-0.5023,-0.4995,-0.4973,-0.4979,-0.4936,-0.4929,-0.4927,-0.4951,-0.4952,-0.4953,-0.4959,-0.4958,0,0,0,0,0,-0.529,-0.5265,-0.5223,-0.5202,-0.5188,-0.5153,-0.5136,-0.5117,-0.5086,-0.5073,-0.5044,-0.5014,-0.4986,-0.4968,-0.4939,-0.4912,-0.4903,-0.4903,-0.4905,-0.4906,-0.4904,-0.4889,-0.4889,-0.4889,-0.4889,-0.4889,0,0,-0.5295,-0.5265,-0.5252,-0.5207,-0.5182,-0.5158,-0.5142,-0.5117,-0.5098,-0.5069,-0.5039,-0.5016,-0.498,-0.4952,-0.4938,-0.4933,-0.4902,-0.4906,-0.4907,-0.4904,-0.4889,-0.4889,-0.4889,-0.4889,-0.4889,-0.4889,0,0,-0.5293,-0.5268,-0.5248,-0.5224,-0.5188,-0.5165,-0.516,-0.5119,-0.5103,-0.5072,-0.505,-0.5028,-0.498,-0.4955,-0.4937,-0.4928,-0.4912,-0.492,-0.4926,-0.4912,-0.4912,-0.4912,-0.4909,-0.4908,-0.4918,-0.4918,-0.4918,0,-0.5305,-0.5267,-0.5239,-0.5215,-0.5196,-0.517,-0.5149,-0.5127,-0.5083,-0.5071,-0.5067,-0.5007,-0.4981,-0.4947,-0.4945,-0.493,-0.4924,-0.4924,-0.4914,-0.4914,-0.4913,-0.491,-0.4909,-0.4919,-0.4919,-0.4919,-0.4919,0,-0.5283,-0.5258,-0.5246,-0.5206,-0.5185,-0.5163,-0.5131,-0.5114,-0.5098,-0.5075,-0.5045,-0.5013,-0.4978,-0.4969,-0.4952,-0.4932,-0.4931,-0.4921,-0.4913,-0.4915,-0.4912,-0.491,-0.4921,-0.4921,-0.492,-0.492,0,0,-0.5296,-0.5241,-0.5237,-0.5219,-0.5178,-0.5158,-0.5135,-0.5102,-0.5088,-0.5059,-0.5039,-0.5,-0.4992,-0.4971,-0.4951,-0.4938,-0.4934,-0.493,-0.4929,-0.4932,-0.4912,-0.492,-0.4919,-0.4924,-0.4923,-0.4923,-0.4915,0,-0.5288,-0.5246,-0.5221,-0.5189,-0.5166,-0.5141,-0.5121,-0.5094,-0.5073,-0.505,-0.5026,-0.4999,-0.4989,-0.4977,-0.4963,-0.4938,-0.493,-0.4938,-0.4905,-0.4904,-0.4914,-0.4917,-0.4924,-0.4918,-0.4913,-0.4913,-0.4913,0,-0.5273,-0.5246,-0.5212,-0.5175,-0.5164,-0.5147,-0.5115,-0.5094,-0.5063,-0.5048,-0.5026,-0.5006,-0.4981,-0.4977,-0.4942,-0.4948,-0.4933,-0.4919,-0.4918,-0.4913,-0.4908,-0.4912,-0.4915,-0.4914,-0.491,-0.4911,-0.4911,0,-0.5286,-0.5241,-0.5215,-0.52,-0.5156,-0.5145,-0.5126,-0.5095,-0.5077,-0.505,-0.5038,-0.5008,-0.4991,-0.4968,-0.4941,-0.494,-0.491,-0.4902,-0.4897,-0.4898,-0.4891,-0.4892,-0.4892,-0.4882,-0.4882,-0.4882,-0.4882,0,-0.5279,-0.526,-0.522,-0.5205,-0.5182,-0.5154,-0.5132,-0.5111,-0.5084,-0.5064,-0.5041,-0.5022,-0.4988,-0.4966,-0.4944,-0.4919,-0.4912,-0.4899,-0.4894,-0.4901,-0.4903,-0.4891,-0.489,-0.4882,-0.4882,-0.4882,-0.4882,0,-0.5289,-0.5262,-0.5233,-0.5194,-0.5184,-0.5169,-0.5136,-0.512,-0.5098,-0.5073,-0.5066,-0.5031,-0.5004,-0.4975,-0.4937,-0.4923,-0.4899,-0.4891,-0.4909,-0.4906,-0.4903,-0.4904,-0.4895,-0.4892,-0.4884,-0.4885,-0.4885,0,-0.5287,-0.5271,-0.5232,-0.5217,-0.5199,-0.5175,-0.5158,-0.5129,-0.5112,-0.5077,-0.5065,-0.5036,-0.5011,-0.4968,-0.4939,-0.4911,-0.4902,-0.4901,-0.4897,-0.4906,-0.4902,-0.4904,-0.4902,-0.4902,-0.4902,-0.4903,-0.4903,0,-0.5286,-0.5273,-0.5249,-0.5221,-0.5201,-0.5177,-0.5152,-0.5141,-0.5108,-0.5089,-0.5061,-0.5042,-0.5005,-0.4976,-0.4944,-0.4924,-0.4908,-0.4904,-0.4902,-0.4909,-0.492,-0.4914,-0.4913,-0.4904,-0.4904,-0.4904,-0.4904,-0.4904,-0.5289,-0.5275,-0.5245,-0.5219,-0.5198,-0.5176,-0.5159,-0.5136,-0.5112,-0.508,-0.5065,-0.5037,-0.5007,-0.4963,-0.4944,-0.4922,-0.4917,-0.4913,-0.4912,-0.4912,-0.4914,-0.4924,-0.4916,-0.4916,-0.4916,-0.4916,-0.4916,0,-0.5287,-0.5267,-0.5244,-0.521,-0.519,-0.5178,-0.515,-0.5134,-0.511,-0.5084,-0.5061,-0.5029,-0.5002,-0.4972,-0.4943,-0.4931,-0.4923,-0.4925,-0.4925,-0.4921,-0.4919,-0.4925,-0.4932,-0.4932,-0.4932,-0.4932,-0.4932,-0.4932,-0.5283,-0.5258,-0.5243,-0.5208,-0.5188,-0.5161,-0.5147,-0.5126,-0.5106,-0.5072,-0.5049,-0.5031,-0.5004,-0.4973,-0.4947,-0.4939,-0.493,-0.4934,-0.4923,-0.4922,-0.4921,-0.492,-0.4925,-0.4932,-0.4932,-0.4927,-0.4927,-0.4927]},{"header":{"parameterUnit":"m.s-1","parameterCategory":1,"la1":30.2991,"la2":30.254,"lo1":-89.0895,"lo2":-89.0444,"dy":0.0017,"dx":0.0017,"nx":28,"ny":28,"refTime":"2025-11-14T09:00:00:Z","depth":0,"parameterNumber":3,"parameterNumberName":"V-component_of_WINDS"},"data":[0,0,0,0,0,0,0,0,0,0,0,0,0,0,0,0,0,0,0,0,0,0,0,0,0,0,0,0,0,0,0,0,0,0,0,0,0,0,0,0,0,0,0,0,0,0,0,0,0,0,0,0,0,0,0,0,0,0,1.0039,1.0039,0,0.9965,0.9964,0.9963,0.9904,0.9904,0.9903,0.9903,0.9825,0.9824,0.9822,0,0,0,0,0,0,0,0,0,0,0,0,0,1.0129,1.0128,1.004,1.0039,1.0038,0.9965,0.9964,0.9963,0.9904,0.9904,0.9903,0.9902,0.9826,0.9824,0.9822,0,0,0,0,0,0,0,0,0,0,0,0,0,1.0076,1.0128,1.004,1.0,0.9995,0.9965,0.9964,0.9963,0.9905,0.9904,0.9903,0.9902,0.9827,0.9824,0.9822,0.9825,0,0,0.9815,0.9814,0,0,0,0,0,0,0,0,1.0079,1.0073,1.0007,1.0002,0.9997,0.9943,0.9967,0.9917,0.9905,0.9939,0.9903,0.9902,0.9865,0.986,0.9848,0.9822,0.9819,0.9815,0.9814,0.9813,0.9812,0,0,0,0,0,0,0,1.0083,1.0076,1.001,1.0006,1.0,0.9985,0.9976,0.9957,0.9908,0.9936,0.9931,0.9923,0.9863,0.985,0.9845,0.9817,0.9815,0.9813,0.9812,0.9811,0.9787,0.9788,0,0,0,0,0,0,1.0093,1.0079,1.0012,1.0008,1.0037,0.9984,0.9974,0.9961,0.9908,0.9899,0.9924,0.9921,0.9854,0.9848,0.9842,0.984,0.9813,0.981,0.9809,0.9786,0.9787,0.9788,0,0,0,0,0,0,1.0095,1.0088,1.0015,1.0042,1.0032,0.9983,0.9969,0.996,0.9948,0.9899,0.989,0.9921,0.9853,0.9846,0.9829,0.9837,0.9809,0.9807,0.9786,0.9787,0.9788,0.9837,0,0,0,0,0,0,1.0098,1.0089,1.009,1.0043,1.0031,1.0004,0.997,0.996,0.9944,0.9939,0.9893,0.9885,0.9852,0.9833,0.9827,0.9833,0.9806,0.9785,0.9786,0.9787,0.9835,0.984,0.9845,0,0,0,0,0,1.0101,1.0108,1.0091,1.0083,1.0031,1.0005,0.9998,0.996,0.9945,0.9945,0.9914,0.9886,0.9837,0.9832,0.9825,0.983,0.9784,0.9786,0.9787,0.9833,0.9839,0.9844,0,0,0,0,0,0,1.0157,1.0101,1.0081,1.0072,1.0044,0.9995,0.9994,0.9969,0.9944,0.994,0.9895,0.9885,0.9873,0.985,0.9845,0.9829,0.9807,0.9807,0.9844,0.985,0.9854,0.9859,0.9804,0,0,0,0,0,1.0169,1.0152,1.0104,1.01,1.0087,1.0044,1.0031,1.0004,0.9973,0.996,0.9928,0.9898,0.9875,0.9862,0.9839,0.9832,0.982,0.9832,0.9837,0.9841,0.9841,0.9833,0.9837,0.9794,0.9794,0.9794,0,0,1.0192,1.0159,1.0151,1.0111,1.0086,1.0068,1.0034,1.0018,1.0004,0.9958,0.9939,0.9915,0.9878,0.9866,0.9859,0.9847,0.985,0.9843,0.9847,0.9844,0.9835,0.9839,0.9843,0.9795,0.9795,0.9794,0,0,1.0224,1.0199,1.0192,1.0167,1.0129,1.01,1.0099,1.0053,1.0035,1.0016,0.998,0.9963,0.9927,0.9901,0.9883,0.9905,0.9878,0.9899,0.9923,0.9916,0.9919,0.9922,0.9927,0.993,0.99,0.99,0.99,0,1.0257,1.0231,1.0192,1.0177,1.0159,1.0117,1.0108,1.0086,1.0043,1.0031,1.0018,0.9969,0.9942,0.9922,0.9927,0.9915,0.991,0.9903,0.9922,0.9925,0.9926,0.9931,0.9933,0.9902,0.9902,0.9902,0.9902,0,1.0272,1.0254,1.0253,1.0211,1.0194,1.0183,1.0141,1.0128,1.0103,1.0074,1.0054,1.002,0.9988,0.9982,0.9958,0.9958,0.9951,0.9931,0.9907,0.9934,0.9937,0.9938,0.9906,0.9905,0.9904,0.9904,0,0,1.0336,1.0273,1.0273,1.0252,1.0207,1.0192,1.0179,1.0147,1.0135,1.0107,1.0093,1.0062,1.0043,1.0023,0.9995,0.9989,1.0005,0.9969,0.9968,0.9975,0.9999,1.0013,1.0016,0.9988,0.9988,0.9988,1.0002,0,1.0359,1.0332,1.0296,1.0281,1.0262,1.0221,1.0209,1.0179,1.0152,1.0132,1.0102,1.008,1.0058,1.0045,1.0037,1.0005,1.0009,1.0004,0.9972,0.9971,0.998,1.0018,1.0032,1.0047,1.0003,1.0003,1.0003,0,1.0383,1.0355,1.0338,1.0293,1.0283,1.0273,1.024,1.0222,1.0187,1.0168,1.0145,1.0115,1.0097,1.0078,1.0051,1.0048,1.0033,1.0015,1.0015,1.0008,0.9987,1.001,1.0051,1.0052,1.0005,1.0005,1.0005,0,1.0428,1.0387,1.0371,1.0355,1.0303,1.0296,1.0273,1.0238,1.022,1.0192,1.018,1.015,1.0133,1.011,1.0072,1.0062,1.0048,1.0026,1.003,1.003,1.0027,1.0027,1.0064,1.0022,1.0022,1.0022,1.0022,0,1.0455,1.0446,1.039,1.038,1.0367,1.0326,1.0314,1.0288,1.0256,1.0239,1.0203,1.0187,1.014,1.0118,1.0089,1.0069,1.0063,1.0045,1.0037,1.0047,1.0049,1.0035,1.0032,1.0022,1.0022,1.0022,1.0022,0,1.0503,1.0465,1.0444,1.0396,1.0384,1.0376,1.0334,1.0322,1.0293,1.0272,1.0265,1.0219,1.0192,1.0152,1.0114,1.0093,1.0078,1.0066,1.0089,1.0084,1.0089,1.0088,1.0116,1.0116,1.0077,1.0077,1.0077,0,1.0521,1.0513,1.0464,1.045,1.0428,1.0407,1.0389,1.0348,1.033,1.0289,1.0281,1.0251,1.0225,1.0183,1.0146,1.0115,1.0101,1.0113,1.0096,1.0106,1.0098,1.0098,1.0096,1.0116,1.0117,1.0117,1.0118,0,1.0558,1.054,1.0515,1.0484,1.0464,1.0438,1.0409,1.04,1.0353,1.0335,1.0306,1.0286,1.0246,1.0216,1.018,1.0156,1.0128,1.0124,1.0122,1.0131,1.0144,1.0135,1.0097,1.0123,1.0122,1.0122,1.0122,1.0121,1.0589,1.0579,1.0542,1.0516,1.049,1.0465,1.045,1.0419,1.0395,1.0359,1.0337,1.0309,1.0273,1.0222,1.0199,1.0176,1.0164,1.0163,1.0162,1.0162,1.0165,1.015,1.0169,1.0169,1.0169,1.0169,1.0169,0,1.0621,1.0596,1.0572,1.0534,1.0513,1.049,1.0457,1.0441,1.0417,1.0386,1.036,1.0327,1.0297,1.0258,1.0225,1.0214,1.02,1.0206,1.0206,1.02,1.0178,1.0181,1.0218,1.0218,1.0218,1.0218,1.0218,1.0218,1.0635,1.0616,1.0593,1.056,1.0534,1.0507,1.049,1.0466,1.044,1.0405,1.038,1.0355,1.0319,1.0284,1.0255,1.0244,1.0232,1.0242,1.0227,1.0206,1.0202,1.0198,1.02,1.024,1.024,1.025,1.0251,1.0251]}]]